F4ECA-13 Weather Reports


time (UTC)temp
F
wind
direction
speed
knots
gust
knots
rain 1hr
in
rain 24hr
in
rain mn
in
humidity
%
barometer
mb
20260506043545 0 0 1.7 2.6 0.00 0.37 3.08 1004.9
20260506042524 57 0 1.7 2.6 0.00 0.37 3.08 63 1004.9
20260506041551 57 0 2.6 2.6 0.00 0.37 3.08 63 1004.9
20260506040524 57 0 3.5 4.3 0.08 0.33 3.08 63 1004.9
20260506035524 57 0 2.6 2.6 0.04 0.29 3.07 63 1004.9
20260506034515 57 0 3.5 3.5 0.04 0.29 3.07 63 1004.9
20260506033607 57 158 2.6 3.5 0.04 0.29 3.07 63 1004.9
20260506032644 57 158 1.7 2.6 0.04 0.29 3.07 63 1004.9
20260506031528 57 158 0.9 0.9 0.04 0.29 3.07 63 1004.9
20260506030528 57 158 1.7 1.7 0.04 0.25 3.07 63 1004.9
20260506025546 57 158 0.9 0.9 0.04 0.25 3.07 63 1004.9
20260506024525 57 158 0.9 1.7 0.04 0.25 3.07 62 1004.9
20260506023545 57 158 0.9 0.9 0.04 0.25 3.07 62 1004.9
20260506022521 57 90 1.7 1.7 0.04 0.25 3.07 62 1004.9
20260506021524 57 90 0.9 2.6 0.00 0.21 3.07 62 1004.9
20260506020603 57 90 0.9 1.7 0.00 0.25 3.07 62 1004.9
20260506015607 57 90 0.9 2.6 0.00 0.25 3.07 62 1004.9
20260506014524 57 90 0.0 0.9 0.00 0.25 3.07 62 1004.9
20260506013517 57 90 0.9 1.7 2.77 3.93 3.07 62 1004.9
20260506012524 57 0.0 0.0 0.00 5.65 2.79 62 1004.9
20260506011602 58 90 0.9 1.7 0.00 0.25 2.79 62 1004.9
20260506010525 58 90 1.7 1.7 0.00 0.25 2.79 62 1005.9